Périgueux

France     45˚10′57″N   0˚43′09″E
temp.,
°C
wind,
m/s
gust,
m/s
humid.,
%
clouds,
%
prec.,
mm/h
press.,
hPa
HPBL,
m
27 november, fri
fri2701:00+8˚ese389323 0.0 1017187
04:00+9˚ese3109469 0.0 1016250
07:00+8˚ese269582 0.0 1016178
10:00+11˚ese498550 0.0 1015374
13:00+15˚se377225 0.0 1014630
16:00+15˚ese26770 0.0 1012468
19:00+11˚e23930 0.0 101361
22:00+10˚ese39897 0.0 1013248
28 november, sat
sat2801:00+9˚e398714 0.0 1012234
04:00+9˚e3108486 0.0 1011239
07:00+8˚ene388490 0.0 1010161
10:00+11˚e387671 0.0 1011289
13:00+15˚se476662 0.0 1010806
16:00+14˚e247775 0.0 1010154
19:00+11˚ene238683 0.0 101229
22:00+10˚ne228965 0.0 101324
29 november, sun
sun2901:00+9˚ne127882 0.0 101422
04:00+7˚nne127325 0.0 101522
07:00+6˚ne236813 0.0 101526
10:00+8˚ene23610 0.0 1017142
13:00+13˚n23501 0.0 1017357
16:00+12˚n24639 0.0 1017126
19:00+7˚nne247654 0.0 101982
22:00+5˚ne277514 0.0 1020143
30 november, mon
mon3001:00+4˚ne22747 0.0 102233
04:00+3˚ne23730 0.0 102255
07:00+2˚ene12720 0.0 102322
10:00+5˚ne26620 0.0 1024228
13:00+10˚ne25470 0.0 1024410
16:00+10˚nne27550 0.0 1024379
19:00+5˚nne310650 0.0 1026230
22:00+3˚ne35650 0.0 1027126
1 december, tue
tue101:00+2˚ne24600 0.0 102882
04:00+2˚ene23560 0.0 102828
07:00+2˚ne235217 0.0 102837
10:00+5˚ne135182 0.0 1028132
13:00+12˚nne254663 0.0 1027398
16:00+11˚n366288 0.0 1026207
19:00+6˚nne387487 0.0 1026189
22:00+5˚nne377496 0.0 1026198